Location: Unspecified
(0.0000°N, 0.0000°E)
Time: 09:38:49
(UTC+00:00)

ATLAS 5 CENTAUR DEB - Pass Details

Date: 23 February 2026
Orbit: 8295 x 34941 km, 19.8° (Epoch: 28 February)

Event Time Altitude Azimuth Distance (km) Brightness Sun altitude
Rises 11:47:39 0° 291° (WNW) 13,995 ? 78.4°
Reaches altitude 10° 11:56:40 10° 292° (WNW) 12,418 ? 79.4°
Maximum altitude 12:43:51 88° 205° (SSW) 10,012 ? 77.7°
Enters shadow 21:48:45 46° 92° (E) 28,973 ? -52.8°
Exits shadow 22:17:52 44° 87° (E) 26,549 ? -59.7°
Drops below altitude 10° 23:57:12 10° 72° (ENE) 18,058 ? -79.7°
Sets 00:10:28 0° 71° (ENE) 17,474 ? -80.4°
